• Join FlightAware (Why Join?)
  • Login
  • US Flag 
05:49PM EST


 

Airport Tracker/Info


-or-


 

Live Flight TrackerFlight Track Log ✈ AAY843 ✈ 12-Jan-2014 ✈ KSYR - KPIE

Flight Track Log - Related Links

Times and Time Zones

All times are in EST time to prevent confusion due to time zone crossing. See the AAY843 flight status page for this flight to view local times or setup timezone preferences in your user account.

Time Position Orientation Groundspeed Altitude Reporting Facility
EST Latitude Longitude Course Direction KTS MPH feet Rate Location/Type
12:49PM 43.1075 -76.1333 257° West 161 185 1,400  Level Boston Center
12:50PM 43.0961 -76.1997 257° West 204 235 3,600 2,160 Climbing Boston Center
12:50PM 43.0961 -76.2036 270° West 245 282 3,700 3,000 Climbing Boston Center
12:51PM 43.0408 -76.2581 216° Southwest 245 282 6,800 2,700 Climbing Boston Center
12:52PM 42.9758 -76.3075 209° Southwest 266 306 9,200 2,160 Climbing Boston Center
12:53PM 42.9089 -76.3644 212° Southwest 280 322 11,200 1,860 Climbing Boston Center
12:54PM 42.8325 -76.4264 211° Southwest 314 361 13,000 1,740 Climbing Boston Center
12:55PM 42.7481 -76.4975 212° Southwest 348 400 14,800 2,040 Climbing Boston Center
12:56PM 42.6633 -76.5658 211° Southwest 353 406 17,200 1,620 Climbing Boston Center
12:57PM 42.5764 -76.6383 212° Southwest 368 423 18,200 1,260 Climbing Boston Center
12:58PM 42.4786 -76.7156 210° Southwest 400 460 19,800 1,680 Climbing Boston Center
12:59PM 42.3792 -76.7964 211° Southwest 413 475 21,700 1,500 Climbing Boston Center
01:00PM 42.2792 -76.8778 211° Southwest 417 480 22,900 1,200 Climbing Boston Center
01:01PM 42.1919 -76.9453 210° Southwest 435 501 23,900 1,380 Climbing New York Center
01:02PM 42.0836 -77.0217 208° Southwest 446 513 25,400 1,440 Climbing New York Center
01:03PM 41.9567 -77.0628 194° South 457 526 26,800 1,500 Climbing New York Center
01:04PM 41.8297 -77.1008 193° South 462 532 28,400 1,440 Climbing New York Center
01:05PM 41.7028 -77.1389 193° South 467 537 29,700 1,020 Climbing New York Center
01:06PM 41.5778 -77.1769 193° South 467 537 30,500 900 Climbing New York Center
01:07PM 41.4361 -77.2161 192° South 467 537 31,500 720 Climbing New York Center
01:08PM 41.3069 -77.2533 192° South 480 552 32,000 240 Climbing New York Center
01:09PM 41.1800 -77.2881 192° South 480 552 32,000  Level New York Center
01:10PM 41.0528 -77.3281 193° South 475 547 32,000  Level New York Center
01:11PM 40.9281 -77.3600 191° South 475 547 32,000 120 Level New York Center
01:12PM 40.7989 -77.3969 192° South 475 547 32,300 480 Climbing New York Center
01:13PM 40.6739 -77.4342 193° South 475 547 33,000 300 Climbing New York Center
01:14PM 40.5467 -77.4711 192° South 475 547 33,000  Level New York Center
01:15PM 40.4217 -77.5053 192° South 475 547 33,000  Level New York Center
01:16PM 40.2906 -77.5389 191° South 475 547 33,000  Level New York Center
01:17PM 40.1675 -77.5731 192° South 475 547 33,000  Level New York Center
01:18PM 40.0403 -77.6094 192° South 475 547 33,000  Level New York Center
01:19PM 39.8542 -77.6619 192° South 462 532 33,000  Level Washington Center
01:20PM 39.7286 -77.6961 192° South 462 532 33,000  Level Washington Center
01:21PM 39.6008 -77.7300 192° South 467 537 33,000  Level Washington Center
01:22PM 39.4733 -77.7664 192° South 467 537 33,000  Level Washington Center
01:23PM 39.3475 -77.8003 192° South 467 537 33,000  Level Washington Center
01:24PM 39.2219 -77.8342 192° South 467 537 33,000  Level Washington Center
01:25PM 39.0942 -77.8703 192° South 467 537 33,000  Level Washington Center
01:26PM 38.9661 -77.9064 192° South 467 537 33,000  Level Washington Center
01:27PM 38.8508 -77.9372 192° South 472 543 33,000  Level Washington Center
01:28PM 38.7272 -77.9681 191° South 467 537 33,000  Level Washington Center
01:29PM 38.5994 -78.0011 191° South 467 537 33,000  Level Washington Center
01:30PM 38.4736 -78.0342 192° South 467 537 33,000  Level Washington Center
01:31PM 38.3478 -78.0697 192° South 467 537 33,000  Level Washington Center
01:32PM 38.2242 -78.1000 191° South 467 537 33,000  Level Washington Center
01:33PM 38.0983 -78.1381 193° South 467 537 33,000  Level Washington Center
01:34PM 37.9842 -78.2131 207° Southwest 434 499 33,000  Level Washington Center
01:35PM 37.8967 -78.2969 217° Southwest 434 499 33,000  Level Washington Center
01:36PM 37.8008 -78.3881 217° Southwest 434 499 33,000  Level Washington Center
01:37PM 37.7394 -78.5067 237° Southwest 414 476 33,000  Level Washington Center
01:38PM 37.7175 -78.6372 258° West 392 451 33,000  Level Washington Center
01:39PM 37.6928 -78.7858 258° West 392 451 33,000  Level Washington Center
01:40PM 37.6353 -78.9092 240° Southwest 397 457 33,000 240 Level Washington Center
01:41PM 37.5289 -78.9806 208° Southwest 402 463 33,500 480 Climbing Washington Center
01:42PM 37.4203 -79.0542 208° Southwest 417 480 34,000 240 Climbing Washington Center
01:43PM 37.3142 -79.1250 208° Southwest 434 499 34,000  Level Washington Center
01:44PM 37.2075 -79.1983 209° Southwest 439 505 34,000  Level Washington Center
01:45PM 37.1136 -79.2642 209° Southwest 439 505 34,000  Level Washington Center
01:46PM 37.0072 -79.3319 207° Southwest 439 505 34,000  Level Washington Center
01:47PM 36.9028 -79.4022 208° Southwest 434 499 34,000  Level Washington Center
01:48PM 36.8006 -79.4725 209° Southwest 429 494 34,000  Level Washington Center
01:49PM 36.6958 -79.5450 209° Southwest 423 487 34,000  Level Washington Center
01:52PM 36.3775 -79.7531 208° Southwest 423 487 34,000  Level Atlanta Center
01:53PM 36.2756 -79.8203 208° Southwest 423 487 34,000  Level Atlanta Center
01:54PM 36.1717 -79.8875 208° Southwest 418 481 34,000  Level Atlanta Center
01:55PM 36.0694 -79.9544 208° Southwest 418 481 34,000  Level Atlanta Center
01:56PM 35.9631 -80.0161 205° Southwest 418 481 34,000  Level Atlanta Center
01:57PM 35.8625 -80.0647 201° Southwest 430 495 34,000  Level Atlanta Center
01:58PM 35.7536 -80.1186 202° Southwest 430 495 34,000  Level Atlanta Center
01:59PM 35.6328 -80.1856 204° Southwest 430 495 34,000  Level Atlanta Center
02:00PM 35.5197 -80.2394 201° Southwest 430 495 34,000  Level Atlanta Center
02:01PM 35.4336 -80.2867 204° Southwest 435 501 34,000  Level Atlanta Center
02:02PM 35.3017 -80.3436 199° South 430 495 34,000  Level Atlanta Center
02:03PM 35.1928 -80.3994 203° Southwest 430 495 34,000  Level Atlanta Center
02:05PM 34.9758 -80.5136 203° Southwest 432 497 34,000  Level Jacksonville Center
02:06PM 34.8539 -80.5703 201° Southwest 432 497 34,000  Level Jacksonville Center
02:07PM 34.7506 -80.6236 203° Southwest 425 489 34,000  Level Jacksonville Center
02:08PM 34.6431 -80.6769 202° Southwest 425 489 34,000  Level Jacksonville Center
02:09PM 34.5356 -80.7300 202° Southwest 425 489 34,000  Level Jacksonville Center
02:10PM 34.4281 -80.7806 201° Southwest 420 483 34,000 -60 Level Jacksonville Center
02:11PM 34.3225 -80.8333 202° Southwest 414 476 33,900  Descending Jacksonville Center
02:12PM 34.2147 -80.8836 201° Southwest 414 476 34,000  Climbing Jacksonville Center
02:13PM 34.1069 -80.9339 201° Southwest 414 476 34,000  Level Jacksonville Center
02:14PM 34.0014 -80.9839 201° Southwest 414 476 34,000  Level Jacksonville Center
02:15PM 33.9083 -81.0308 203° Southwest 409 471 34,000  Level Jacksonville Center
02:16PM 33.8006 -81.0831 202° Southwest 409 471 34,000  Level Jacksonville Center
02:17PM 33.6844 -81.1403 202° Southwest 415 478 34,000  Level Jacksonville Center
02:18PM 33.5767 -81.1950 203° Southwest 415 478 34,000  Level Jacksonville Center
02:19PM 33.4731 -81.2442 202° Southwest 415 478 34,000  Level Jacksonville Center
02:20PM 33.3692 -81.2958 203° Southwest 415 478 34,000  Level Jacksonville Center
02:21PM 33.2633 -81.3450 201° Southwest 415 478 34,000 -60 Level Jacksonville Center
02:22PM 33.1578 -81.3989 203° Southwest 415 478 33,900 -60 Descending Jacksonville Center
02:23PM 33.0517 -81.4503 202° Southwest 415 478 33,900  Level Jacksonville Center
02:24PM 32.9481 -81.5014 202° Southwest 415 478 34,000  Climbing Jacksonville Center
02:25PM 32.8422 -81.5525 202° Southwest 415 478 34,000  Level Jacksonville Center
02:26PM 32.7361 -81.6033 202° Southwest 415 478 34,000  Level Jacksonville Center
02:27PM 32.6303 -81.6542 202° Southwest 415 478 34,000  Level Jacksonville Center
02:28PM 32.5389 -81.7000 203° Southwest 415 478 34,000  Level Jacksonville Center
02:29PM 32.4225 -81.7556 202° Southwest 415 478 34,000  Level Jacksonville Center
02:30PM 32.3289 -81.7986 201° Southwest 415 478 34,000  Level Jacksonville Center
02:31PM 32.2144 -81.8564 203° Southwest 415 478 34,000  Level Jacksonville Center
02:32PM 32.1106 -81.9067 202° Southwest 415 478 34,000  Level Jacksonville Center
02:33PM 32.0147 -81.9492 201° Southwest 415 478 34,000  Level Jacksonville Center
02:34PM 31.9003 -81.9994 200° South 415 478 34,000  Level Jacksonville Center
02:35PM 31.8003 -82.0394 199° South 410 472 34,000  Level Jacksonville Center
02:36PM 31.6839 -82.0869 199° South 405 466 34,000  Level Jacksonville Center
02:37PM 31.5775 -82.1292 199° South 410 472 34,000  Level Jacksonville Center
02:38PM 31.4714 -82.1739 200° South 403 464 34,000  Level Jacksonville Center
02:39PM 31.3672 -82.2161 199° South 403 464 34,000  Level Jacksonville Center
02:40PM 31.2503 -82.2389 189° South 408 470 34,000  Level Jacksonville Center
02:41PM 31.1314 -82.2444 182° South 423 487 34,000  Level Jacksonville Center
02:42PM 31.0144 -82.2525 183° South 423 487 34,000  Level Jacksonville Center
02:43PM 30.8956 -82.2608 183° South 423 487 34,000  Level Jacksonville Center
02:44PM 30.7828 -82.2711 184° South 423 487 34,000  Level Jacksonville Center
02:45PM 30.6658 -82.2792 183° South 423 487 34,000  Level Jacksonville Center
02:46PM 30.5511 -82.2894 184° South 423 487 34,000  Level Jacksonville Center
02:47PM 30.4489 -82.2925 181° South 415 478 34,000  Level Jacksonville Center
02:48PM 30.3300 -82.3006 183° South 420 483 34,000  Level Jacksonville Center
02:49PM 30.2150 -82.3086 183° South 420 483 34,000  Level Jacksonville Center
02:50PM 30.0856 -82.3214 185° South 420 483 34,000 -360 Level Jacksonville Center
02:51PM 29.9792 -82.3314 185° South 421 484 33,300 -1,560 Descending Jacksonville Center
02:52PM 29.8497 -82.3394 183° South 421 484 30,900 -2,460 Descending Jacksonville Center
02:53PM 29.7289 -82.3472 183° South 432 497 28,400 -2,400 Descending Jacksonville Center
02:54PM 29.6036 -82.3575 184° South 442 509 26,200 -1,500 Descending Jacksonville Center
02:55PM 29.4803 -82.3461 175° South 442 509 25,400 -1,080 Descending Jacksonville Center
02:56PM 29.3572 -82.3303 174° South 442 509 24,100 -1,380 Descending Jacksonville Center
02:57PM 29.2422 -82.3167 174° South 442 509 22,700 -1,500 Descending Jacksonville Center
02:58PM 29.1253 -82.3056 175° South 432 497 21,200 -2,040 Descending Jacksonville Center
02:59PM 29.0147 -82.2919 174° South 421 484 18,700 -2,460 Descending Jacksonville Center
03:00PM 28.9144 -82.2831 176° South 410 472 16,300 -2,460 Descending Jacksonville Center
03:01PM 28.8078 -82.2669 172° South 405 466 13,800 -1,320 Descending Jacksonville Center
03:03PM 28.5833 -82.2500 176° South 364 419 12,300 -960 Descending Tampa TRACON
03:04PM 28.4833 -82.2833 196° South 355 409 10,900 -1,200 Descending Tampa TRACON
03:05PM 28.4833 -82.4000 270° West 349 402 10,000 -480 Descending Tampa TRACON
03:06PM 28.4667 -82.5167 261° West 350 403 10,000 -300 Level Tampa TRACON
03:07PM 28.4667 -82.6000 270° West 299 344 9,500 -1,020 Descending Tampa TRACON
03:08PM 28.4667 -82.7000 270° West 285 328 8,000 -1,380 Descending Tampa TRACON
03:09PM 28.4500 -82.7833 257° West 274 315 6,800 -960 Descending Tampa TRACON
03:10PM 28.3667 -82.8333 208° Southwest 286 329 6,000 -780 Descending Tampa TRACON
03:11PM 28.3000 -82.8667 204° Southwest 283 326 5,200 -900 Descending Tampa TRACON
03:12PM 28.2333 -82.8667 180° South 271 312 4,200 -900 Descending Tampa TRACON
03:13PM 28.1500 -82.8667 180° South 271 312 3,400 -600 Descending Tampa TRACON
03:14PM 28.0833 -82.8667 180° South 264 304 3,000 -240 Descending Tampa TRACON
03:15PM 28.0000 -82.8500 170° South 259 298 3,000  Level Tampa TRACON
03:16PM 27.9333 -82.8333 168° South 262 302 3,000  Level Tampa TRACON
03:17PM 27.8667 -82.8000 156° South 205 236 3,000 -300 Level Tampa TRACON
03:18PM 27.8333 -82.7833 156° South 186 214 2,500 -780 Descending Tampa TRACON
03:19PM 27.8000 -82.7500 139° Southeast 194 223 1,600 -480 Descending Tampa TRACON
03:20PM 27.8000 -82.7000 90° East 164 189 1,600 -60 Level Tampa TRACON
03:21PM 27.8333 -82.6833 24° Northeast 154 177 1,500 -600 Descending Tampa TRACON
03:22PM 27.8667 -82.6833 360° North 140 161 500 -1,020 Descending Tampa TRACON
03:24PM 27.9100 -82.6875 65° Northeast  Level Estimated
03:31PM 27.9100 -82.6875 310° West  Level Estimated
03:32PM 27.9100 -82.6875 310° West  Level Estimated
03:33PM 27.9100 -82.6875 310° West  Level Estimated
03:34PM 27.9100 -82.6875 310° West  Level Estimated
03:35PM 27.9100 -82.6875 310° West  Level Estimated
03:36PM 27.9100 -82.6875 310° West  Level Estimated
03:37PM 27.9100 -82.6875 310° West  Level Estimated
03:38PM 27.9100 -82.6875 310° West  Level Estimated
03:39PM 27.9100 -82.6875 310° West  Level Estimated
03:40PM 27.9100 -82.6875 310° West  Level Estimated